Terug naar catalogus

GAOFEN 1-02

ActiefWetenschapSSO
NORAD 43259·PAYLOAD·🇨🇳 China

Gelanceerd Mar 31, 2018 vanaf Taiyuan Satellite Launch Center

Loading…

Volgende Passages (komende 24 uur)

TLE

VersSource: Space-Track

Epoch: Sep 14, 2026, 23:01 UTC

1 43259U 18031A   26257.95920209  .00000630  00000-0  97905-4 0  9997
2 43259  98.0443 320.1930 0004220  84.3961 275.7729 14.76481353455948

Volg GAOFEN 1-02 in realtime met AllMySat

Download on the App Store